Time,TemperatureF,DewpointF,PressureIn,WindDirection,WindDirectionDegrees,WindSpeedMPH,WindSpeedGustMPH,Humidity,HourlyPrecipIn,Conditions,Clouds,dailyrainin,SoftwareType,DateUTC
2013-04-17 00:06:00,64.9,59.0,30.15,SW,224,0.0,3.0,80,0.00,,,0.00,weatherlink.com 1.10,2013-04-17 04:06:00,
2013-04-17 00:21:00,64.9,59.0,30.18,NW,325,7.0,16.0,81,0.00,,,0.00,weatherlink.com 1.10,2013-04-17 04:21:00,
2013-04-17 00:36:00,64.5,59.0,30.18,WNW,295,0.0,4.0,83,0.02,,,0.02,weatherlink.com 1.10,2013-04-17 04:36:00,
2013-04-17 00:51:00,63.3,59.0,30.18,SSE,163,2.0,3.0,86,0.03,,,0.03,weatherlink.com 1.10,2013-04-17 04:51:00,
2013-04-17 01:06:00,62.2,60.0,30.18,ESE,115,0.0,3.0,91,0.03,,,0.03,weatherlink.com 1.10,2013-04-17 05:06:00,
2013-04-17 01:21:00,61.6,59.0,30.17,SSE,161,3.0,4.0,92,0.03,,,0.03,weatherlink.com 1.10,2013-04-17 05:21:00,
2013-04-17 01:36:00,61.5,60.0,30.16,North,354,1.0,4.0,93,0.01,,,0.03,weatherlink.com 1.10,2013-04-17 05:36:00,
2013-04-17 01:51:00,61.3,59.0,30.14,SE,138,3.0,3.0,92,0.01,,,0.04,weatherlink.com 1.10,2013-04-17 05:51:00,
2013-04-17 02:06:00,61.1,59.0,30.12,East,82,1.0,4.0,93,0.01,,,0.04,weatherlink.com 1.10,2013-04-17 06:06:00,
2013-04-17 02:22:00,60.9,59.0,30.12,ENE,63,0.0,6.0,93,0.01,,,0.04,weatherlink.com 1.10,2013-04-17 06:22:00,
2013-04-17 02:37:00,61.0,59.0,30.12,SSE,154,1.0,3.0,94,0.01,,,0.04,weatherlink.com 1.10,2013-04-17 06:37:00,
2013-04-17 02:52:00,61.9,59.0,30.11,SW,214,3.0,6.0,91,0.00,,,0.04,weatherlink.com 1.10,2013-04-17 06:52:00,
2013-04-17 03:07:00,61.1,59.0,30.10,East,96,3.0,5.0,93,0.00,,,0.04,weatherlink.com 1.10,2013-04-17 07:07:00,
2013-04-17 03:22:00,60.9,59.0,30.10,ESE,112,0.0,0.0,93,0.00,,,0.04,weatherlink.com 1.10,2013-04-17 07:22:00,
2013-04-17 03:37:00,60.5,59.0,30.10,NE,43,2.0,4.0,93,0.00,,,0.04,weatherlink.com 1.10,2013-04-17 07:37:00,
2013-04-17 03:52:00,60.4,58.0,30.10,WNW,295,3.0,4.0,93,0.00,,,0.04,weatherlink.com 1.10,2013-04-17 07:52:00,
2013-04-17 04:07:00,59.5,58.0,30.11,WNW,291,0.0,1.0,94,0.00,,,0.04,weatherlink.com 1.10,2013-04-17 08:07:00,
2013-04-17 04:22:00,59.4,58.0,30.10,West,271,1.0,2.0,95,0.00,,,0.04,weatherlink.com 1.10,2013-04-17 08:22:00,
2013-04-17 04:37:00,59.2,58.0,30.11,West,274,0.0,3.0,95,0.00,,,0.04,weatherlink.com 1.10,2013-04-17 08:37:00,
2013-04-17 04:52:00,59.3,58.0,30.11,West,274,0.0,1.0,96,0.00,,,0.04,weatherlink.com 1.10,2013-04-17 08:52:00,
2013-04-17 05:07:00,59.3,58.0,30.11,SSE,165,0.0,2.0,95,0.00,,,0.04,weatherlink.com 1.10,2013-04-17 09:07:00,
2013-04-17 05:22:00,58.8,58.0,30.12,SSE,160,0.0,0.0,96,0.00,,,0.04,weatherlink.com 1.10,2013-04-17 09:22:00,
2013-04-17 05:37:00,59.4,58.0,30.11,SSW,195,1.0,3.0,95,0.00,,,0.04,weatherlink.com 1.10,2013-04-17 09:37:00,
2013-04-17 05:52:00,58.7,58.0,30.12,ENE,64,0.0,1.0,96,0.00,,,0.04,weatherlink.com 1.10,2013-04-17 09:52:00,
2013-04-17 06:07:00,58.5,57.0,30.12,SE,136,0.0,2.0,96,0.00,,,0.04,weatherlink.com 1.10,2013-04-17 10:07:00,
2013-04-17 06:22:00,58.2,57.0,30.13,SE,129,0.0,1.0,97,0.00,,,0.04,weatherlink.com 1.10,2013-04-17 10:22:00,
2013-04-17 06:37:00,58.3,58.0,30.13,SE,126,0.0,1.0,97,0.00,,,0.04,weatherlink.com 1.10,2013-04-17 10:37:00,
2013-04-17 07:07:00,57.4,57.0,30.14,WSW,249,0.0,1.0,97,0.00,,,0.04,weatherlink.com 1.10,2013-04-17 11:07:00,
2013-04-17 07:22:00,57.6,57.0,30.15,WSW,250,0.0,0.0,97,0.00,,,0.04,weatherlink.com 1.10,2013-04-17 11:22:00,
2013-04-17 07:37:00,57.7,57.0,30.15,WSW,250,0.0,0.0,97,0.00,,,0.04,weatherlink.com 1.10,2013-04-17 11:37:00,
2013-04-17 07:52:00,57.7,57.0,30.14,SSE,149,0.0,2.0,97,0.00,,,0.04,weatherlink.com 1.10,2013-04-17 11:52:00,
2013-04-17 08:07:00,58.2,58.0,30.14,SSE,149,0.0,1.0,98,0.00,,,0.04,weatherlink.com 1.10,2013-04-17 12:07:00,
2013-04-17 08:22:00,58.6,58.0,30.14,ESE,110,0.0,2.0,97,0.00,,,0.04,weatherlink.com 1.10,2013-04-17 12:22:00,
2013-04-17 08:37:00,59.1,58.0,30.13,ESE,105,1.0,1.0,97,0.00,,,0.04,weatherlink.com 1.10,2013-04-17 12:37:00,
2013-04-17 08:52:00,59.7,59.0,30.14,SE,131,0.0,1.0,97,0.00,,,0.04,weatherlink.com 1.10,2013-04-17 12:52:00,
2013-04-17 09:07:00,60.6,60.0,30.14,East,85,0.0,0.0,96,0.00,,,0.04,weatherlink.com 1.10,2013-04-17 13:07:00,
2013-04-17 09:22:00,62.0,60.0,30.15,WSW,256,1.0,3.0,94,0.00,,,0.04,weatherlink.com 1.10,2013-04-17 13:22:00,
2013-04-17 09:37:00,62.9,61.0,30.15,SE,143,0.0,1.0,92,0.00,,,0.04,weatherlink.com 1.10,2013-04-17 13:37:00,
2013-04-17 09:52:00,64.1,61.0,30.16,NNE,30,0.0,2.0,90,0.00,,,0.04,weatherlink.com 1.10,2013-04-17 13:52:00,
2013-04-17 10:07:00,64.8,62.0,30.16,NE,37,3.0,3.0,89,0.00,,,0.04,weatherlink.com 1.10,2013-04-17 14:07:00,
2013-04-17 10:22:00,66.3,62.0,30.16,ENE,64,0.0,2.0,85,0.00,,,0.04,weatherlink.com 1.10,2013-04-17 14:22:00,
2013-04-17 10:37:00,67.5,62.0,30.15,ENE,72,0.0,4.0,83,0.00,,,0.04,weatherlink.com 1.10,2013-04-17 14:37:00,
2013-04-17 10:52:00,68.0,62.0,30.15,East,99,0.0,3.0,80,0.00,,,0.04,weatherlink.com 1.10,2013-04-17 14:52:00,
2013-04-17 11:07:00,69.8,63.0,30.15,East,96,0.0,4.0,79,0.00,,,0.04,weatherlink.com 1.10,2013-04-17 15:07:00,
2013-04-17 11:22:00,71.2,63.0,30.15,North,8,3.0,4.0,75,0.00,,,0.04,weatherlink.com 1.10,2013-04-17 15:22:00,
2013-04-17 11:37:00,72.7,60.0,30.15,West,278,0.0,4.0,65,0.00,,,0.04,weatherlink.com 1.10,2013-04-17 15:37:00,
2013-04-17 11:52:00,74.0,59.0,30.15,SE,141,1.0,4.0,59,0.00,,,0.04,weatherlink.com 1.10,2013-04-17 15:52:00,
2013-04-17 12:07:00,74.6,58.0,30.16,West,269,0.0,5.0,57,0.00,,,0.04,weatherlink.com 1.10,2013-04-17 16:07:00,
2013-04-17 12:23:00,78.2,59.0,30.15,SSW,210,0.0,2.0,51,0.00,,,0.04,weatherlink.com 1.10,2013-04-17 16:23:00,
2013-04-17 12:38:00,76.7,58.0,30.14,ESE,108,0.0,5.0,52,0.00,,,0.04,weatherlink.com 1.10,2013-04-17 16:38:00,
2013-04-17 12:53:00,75.4,57.0,30.12,ENE,75,4.0,7.0,54,0.00,,,0.04,weatherlink.com 1.10,2013-04-17 16:53:00,
2013-04-17 13:08:00,76.1,59.0,30.12,NE,56,5.0,5.0,55,0.00,,,0.04,weatherlink.com 1.10,2013-04-17 17:08:00,
2013-04-17 13:23:00,76.9,58.0,30.12,ENE,57,2.0,4.0,52,0.00,,,0.04,weatherlink.com 1.10,2013-04-17 17:23:00,
2013-04-17 13:38:00,77.4,58.0,30.11,ESE,120,2.0,5.0,51,0.00,,,0.04,weatherlink.com 1.10,2013-04-17 17:38:00,
2013-04-17 13:53:00,77.8,58.0,30.11,East,84,2.0,3.0,51,0.00,,,0.04,weatherlink.com 1.10,2013-04-17 17:53:00,
2013-04-17 14:08:00,78.0,57.0,30.11,East,81,1.0,6.0,49,0.00,,,0.04,weatherlink.com 1.10,2013-04-17 18:08:00,
2013-04-17 14:23:00,78.8,57.0,30.11,South,169,0.0,3.0,48,0.00,,,0.04,weatherlink.com 1.10,2013-04-17 18:23:00,
2013-04-17 14:38:00,79.8,57.0,30.10,West,277,0.0,6.0,46,0.00,,,0.04,weatherlink.com 1.10,2013-04-17 18:38:00,
2013-04-17 14:53:00,79.4,58.0,30.09,SSE,148,4.0,4.0,48,0.00,,,0.04,weatherlink.com 1.10,2013-04-17 18:53:00,
2013-04-17 15:08:00,80.0,57.0,30.09,ESE,113,5.0,5.0,45,0.00,,,0.04,weatherlink.com 1.10,2013-04-17 19:08:00,
2013-04-17 15:23:00,80.2,56.0,30.08,ENE,65,2.0,5.0,44,0.00,,,0.04,weatherlink.com 1.10,2013-04-17 19:23:00,
2013-04-17 15:38:00,79.7,58.0,30.07,ESE,115,5.0,-999.0,47,-99.99,,,0.04,weatherlink.com 1.10,2013-04-17 19:38:00,
2013-04-17 15:53:00,80.8,58.0,30.07,SE,130,0.0,10.0,46,0.00,,,0.04,weatherlink.com 1.10,2013-04-17 19:53:00,
2013-04-17 16:08:00,81.6,56.0,30.07,SW,216,1.0,7.0,41,0.00,,,0.04,weatherlink.com 1.10,2013-04-17 20:08:00,
2013-04-17 16:23:00,82.9,55.0,30.07,SSE,160,3.0,5.0,39,0.00,,,0.04,weatherlink.com 1.10,2013-04-17 20:23:00,
2013-04-17 16:38:00,81.6,56.0,30.07,SSW,200,5.0,8.0,41,0.00,,,0.04,weatherlink.com 1.10,2013-04-17 20:38:00,
2013-04-17 16:53:00,80.7,55.0,30.06,SE,144,3.0,7.0,41,0.00,,,0.04,weatherlink.com 1.10,2013-04-17 20:53:00,
2013-04-17 17:08:00,80.5,56.0,30.06,SE,141,4.0,6.0,43,0.00,,,0.04,weatherlink.com 1.10,2013-04-17 21:08:00,
2013-04-17 17:23:00,79.9,56.0,30.06,SE,139,3.0,6.0,44,0.00,,,0.04,weatherlink.com 1.10,2013-04-17 21:23:00,
2013-04-17 17:38:00,79.0,59.0,30.07,ENE,78,7.0,9.0,50,0.00,,,0.04,weatherlink.com 1.10,2013-04-17 21:38:00,
2013-04-17 17:53:00,78.3,59.0,30.07,East,86,6.0,8.0,52,0.00,,,0.04,weatherlink.com 1.10,2013-04-17 21:53:00,
2013-04-17 18:08:00,78.1,61.0,30.07,ENE,77,5.0,5.0,55,0.00,,,0.04,weatherlink.com 1.10,2013-04-17 22:08:00,
2013-04-17 18:23:00,74.7,63.0,30.07,NNE,12,9.0,12.0,68,0.00,,,0.04,weatherlink.com 1.10,2013-04-17 22:23:00,
2013-04-17 18:38:00,73.4,63.0,30.07,North,9,6.0,12.0,71,0.00,,,0.04,weatherlink.com 1.10,2013-04-17 22:38:00,
2013-04-17 18:53:00,72.3,63.0,30.07,NNE,16,9.0,14.0,73,0.00,,,0.04,weatherlink.com 1.10,2013-04-17 22:53:00,
2013-04-17 19:08:00,70.8,63.0,30.08,NNE,23,10.0,17.0,76,0.00,,,0.04,weatherlink.com 1.10,2013-04-17 23:08:00,
2013-04-17 19:23:00,70.0,63.0,30.08,NNE,25,9.0,13.0,77,0.00,,,0.04,weatherlink.com 1.10,2013-04-17 23:23:00,
2013-04-17 19:38:00,69.6,62.0,30.09,North,351,3.0,8.0,78,0.00,,,0.04,weatherlink.com 1.10,2013-04-17 23:38:00,
2013-04-17 19:53:00,69.5,62.0,30.09,NE,40,5.0,5.0,78,0.00,,,0.04,weatherlink.com 1.10,2013-04-17 23:53:00,
2013-04-17 20:08:00,68.8,62.0,30.09,North,354,7.0,10.0,80,0.00,,,0.04,weatherlink.com 1.10,2013-04-18 00:08:00,
2013-04-17 20:23:00,67.8,61.0,30.10,NNE,23,4.0,10.0,80,0.00,,,0.04,weatherlink.com 1.10,2013-04-18 00:23:00,
2013-04-17 20:38:00,67.4,61.0,30.11,WNW,285,1.0,6.0,80,0.00,,,0.04,weatherlink.com 1.10,2013-04-18 00:38:00,
2013-04-17 20:53:00,67.1,61.0,30.11,NW,326,3.0,5.0,80,0.00,,,0.04,weatherlink.com 1.10,2013-04-18 00:53:00,
2013-04-17 21:08:00,66.5,61.0,30.10,NNW,330,2.0,4.0,82,0.00,,,0.04,weatherlink.com 1.10,2013-04-18 01:08:00,
2013-04-17 21:23:00,66.1,61.0,30.11,NNW,339,1.0,4.0,82,0.00,,,0.04,weatherlink.com 1.10,2013-04-18 01:23:00,
2013-04-17 21:53:00,64.7,60.0,30.12,NNE,20,6.0,7.0,84,0.00,,,0.04,weatherlink.com 1.10,2013-04-18 01:53:00,
2013-04-17 22:08:00,64.3,59.0,30.13,NNE,20,7.0,9.0,84,0.00,,,0.04,weatherlink.com 1.10,2013-04-18 02:08:00,
2013-04-17 22:23:00,64.2,60.0,30.14,NNW,328,4.0,7.0,85,0.00,,,0.04,weatherlink.com 1.10,2013-04-18 02:23:00,
2013-04-17 22:38:00,64.3,60.0,30.14,NNW,330,0.0,3.0,85,0.00,,,0.04,weatherlink.com 1.10,2013-04-18 02:38:00,
2013-04-17 22:55:00,64.4,60.0,30.14,SW,224,0.0,1.0,85,0.00,,,0.04,weatherlink.com 1.10,2013-04-18 02:55:00,
2013-04-17 23:09:00,64.4,60.0,30.14,NNE,27,3.0,5.0,84,0.00,,,0.04,weatherlink.com 1.10,2013-04-18 03:09:00,
2013-04-17 23:23:00,64.5,60.0,30.13,ENE,74,1.0,3.0,84,0.00,,,0.04,weatherlink.com 1.10,2013-04-18 03:23:00,
2013-04-17 23:38:00,64.3,60.0,30.14,North,354,0.0,3.0,85,0.00,,,0.04,weatherlink.com 1.10,2013-04-18 03:38:00,
2013-04-17 23:53:00,64.4,60.0,30.14,WNW,293,2.0,2.0,85,0.00,,,0.04,weatherlink.com 1.10,2013-04-18 03:53:00,